Weather History for Pascagoula, MS

Change the Weather History Date:

Friday, April 12, 2013

  Actual Average Record
Temperature  
Mean Temperature 63 °F -  
Max Temperature 75 °F 74 °F 86 °F (1999)
Min Temperature 51 °F 56 °F 37 °F (1998)
Degree Days  
Heating Degree Days 2    
Growing Degree Days 13 (Base 50)    
Moisture  
Dew Point 48 °F    
Average Humidity 66    
Maximum Humidity 93    
Minimum Humidity 32    
Precipitation  
Precipitation 0.00 in - - ()
Sea Level Pressure  
Sea Level Pressure 29.91 in    
Wind  
Wind Speed 8 mph (North)    
Max Wind Speed 17 mph    
Max Gust Speed 21 mph    
Visibility 10 miles    
Events      
Averages and records for this station are not official NWS values.
T = Trace of Precipitation, MM = Missing Value Source: NWS Daily Summary

Daily Weather History Graph

Daily Weather History Graph

Search for Another Location

Airport:

Trip Planner

Search our weather history database for the weather conditions in past years. The results will help you decide how hot, cold, wet, or windy it might be!

Date:

Astronomy

Apr. 12, 2013 Rise Set
Actual Time 6:29 AM CDT 7:20 PM CDT
Civil Twilight 6:05 AM CDT 7:44 PM CDT
Nautical Twilight 5:36 AM CDT 8:13 PM CDT
Astronomical Twilight 5:06 AM CDT 8:43 PM CDT
Moon 7:48 AM CDT (4/12) 9:40 PM CDT (4/12)
Length of Visible Light 13h 39m
Length of Day
12h 50m
Waxing Crescent, 5% of the Moon is Illuminated
Apr 12
Waxing Crescent
Apr 18
First Quarter
Apr 25
Full
May 2
Last Quarter
May 9
New

Hourly Weather History & Observations

Time (CDT) Temp. Dew Point Humidity Pressure Visibility Wind Dir Wind Speed Gust Speed Precip Events Conditions
12:53 AM 57.9 °F 54.0 °F 87% 29.82 in 10.0 mi Variable 6.9 mph - N/A   Overcast
1:53 AM 57.0 °F 53.1 °F 87% 29.82 in 10.0 mi NW 6.9 mph - N/A   Overcast
2:53 AM 55.0 °F 51.1 °F 86% 29.83 in 10.0 mi NNW 11.5 mph - N/A   Overcast
3:53 AM 55.0 °F 51.1 °F 86% 29.84 in 10.0 mi NNW 9.2 mph - N/A   Overcast
4:53 AM 54.0 °F 50.0 °F 86% 29.86 in 10.0 mi NW 6.9 mph - N/A   Overcast
5:53 AM 53.1 °F 48.9 °F 86% 29.88 in 10.0 mi North 12.7 mph - N/A   Overcast
6:53 AM 51.1 °F 46.9 °F 86% 29.91 in 10.0 mi North 10.4 mph 18.4 mph N/A   Mostly Cloudy
7:01 AM 51.8 °F 46.4 °F 82% 29.90 in 10.0 mi North 9.2 mph - N/A   Scattered Clouds
7:53 AM 54.0 °F 46.9 °F 77% 29.93 in 10.0 mi North 13.8 mph 20.7 mph N/A   Clear
8:53 AM 57.0 °F 44.1 °F 62% 29.93 in 10.0 mi North 17.3 mph - N/A   Clear
9:53 AM 61.0 °F 44.1 °F 54% 29.94 in 10.0 mi North 13.8 mph - N/A   Clear
10:53 AM 64.9 °F 44.1 °F 47% 29.96 in 10.0 mi North 11.5 mph - N/A   Clear
11:53 AM 68.0 °F 43.0 °F 40% 29.95 in 10.0 mi NNE 13.8 mph - N/A   Clear
12:53 PM 70.0 °F 45.0 °F 41% 29.94 in 10.0 mi North 10.4 mph - N/A   Clear
1:53 PM 71.1 °F 45.0 °F 39% 29.93 in 10.0 mi North 6.9 mph - N/A   Clear
2:53 PM 73.9 °F 43.0 °F 33% 29.91 in 10.0 mi North 12.7 mph 17.3 mph N/A   Clear
3:53 PM 75.0 °F 43.0 °F 32% 29.91 in 10.0 mi North 10.4 mph - N/A   Clear
4:53 PM 75.0 °F 43.0 °F 32% 29.91 in 10.0 mi North 8.1 mph - N/A   Clear
5:53 PM 73.9 °F 44.1 °F 34% 29.91 in 10.0 mi North 5.8 mph - N/A   Clear
6:53 PM 71.1 °F 46.9 °F 42% 29.92 in 10.0 mi Calm Calm - N/A   Clear
7:53 PM 62.1 °F 53.1 °F 72% 29.94 in 10.0 mi Calm Calm - N/A   Clear
8:53 PM 60.1 °F 54.0 °F 80% 29.96 in 10.0 mi Calm Calm - N/A   Clear
9:53 PM 57.0 °F 53.1 °F 87% 29.97 in 10.0 mi Calm Calm - N/A   Clear
10:53 PM 55.9 °F 53.1 °F 90% 29.99 in 10.0 mi Calm Calm - N/A   Clear
11:53 PM 53.1 °F 51.1 °F 93% 29.99 in 10.0 mi Calm Calm - N/A   Clear